Weather in Novyye Baydary

Russia / Kurgan Oblast     54°56′26″N   65°51′49″E
temp.,
°C
wind,
m/s
gust,
m/s
humid.,
%
clouds,
%
prec.,
mm/h
press.,
hPa
HPBL,
m
10 may, mon
mon1023:00+17ene71338100 0.0 1016686
02:00+15ene61143100 0.0 1017513
05:00+12ne6125294 0.0 1019477
08:00+13ene7104381 0.0 1020767
11:00+16ene793283 0.0 10211344
14:00+18ene7925100 0.0 10221715
17:00+18ene7825100 0.0 10231810
20:00+15ene5934100 0.0 1024273
11 may, tue
tue1123:00+12ene3841100 0.0 1025160
02:00+10ene344883 0.0 102645
05:00+8ene33530 0.0 102731
08:00+14ene34385 0.0 1028372
11:00+18ene34284 0.0 10281601
14:00+21n22240 0.0 10281928
17:00+21nnw332455 0.0 10271867
20:00+17nw3336100 0.0 102828
12 may, wed
wed1223:00+14wnw3339100 0.0 102830
02:00+13nw2343100 0.0 102819
05:00+11wnw34475 0.0 102850
08:00+17wnw463788 0.0 1028315
11:00+22wnw4528100 0.0 10271149
14:00+24wnw672947 0.0 10262470
17:00+23nw5737100 0.0 10252519
20:00+18nne336186 0.0 102639
13 may, thu
thu1323:00+16n3367100 0.0 102641
02:00+13nne2263100 0.0 102619
05:00+14nne356078 0.0 1027140
08:00+17ne464965 0.0 1027496
11:00+20n3442100 0.0 10271402
14:00+22n45375 0.0 10261908
17:00+23n463622 0.0 10252189
20:00+21nne1246100 0.0 102511
14 may, fri
fri1423:00+20wsw114699 0.0 102511
02:00+19w225263 0.0 102533
05:00+17nnw225740 0.0 102618
08:00+21ene22467 0.0 1027298
11:00+26wsw13342 0.0 10272109
14:00+27wnw45305 0.0 10252525
17:00+28wnw56275 0.0 10242699
20:00+23w33425 0.0 102335